TimeCST,TemperatureF,Dew PointF,Humidity,Sea Level PressureIn,VisibilityMPH,Wind Direction,Wind SpeedMPH,Gust SpeedMPH,PrecipitationIn,Events,Conditions,WindDirDegrees,DateUTC
12:53 AM,62.1,57.0,84,29.99,10.0,South,6.9,-,N/A,,Clear,170,2011-11-14 06:53:00
1:53 AM,62.1,57.0,84,29.99,10.0,South,8.1,-,N/A,,Clear,170,2011-11-14 07:53:00
2:53 AM,61.0,57.9,90,29.99,10.0,South,8.1,-,N/A,,Clear,170,2011-11-14 08:53:00
3:53 AM,60.1,57.9,93,29.99,10.0,South,5.8,-,N/A,,Clear,180,2011-11-14 09:53:00
4:53 AM,60.1,59.0,96,30.00,7.0,South,6.9,-,N/A,,Clear,170,2011-11-14 10:53:00
5:15 AM,62.6,60.8,94,29.98,7.0,South,8.1,-,N/A,,Scattered Clouds,170,2011-11-14 11:15:00
5:24 AM,62.6,60.8,94,29.98,7.0,South,6.9,-,N/A,,Mostly Cloudy,170,2011-11-14 11:24:00
5:42 AM,62.6,60.8,94,29.97,5.0,South,8.1,-,N/A,,Scattered Clouds,180,2011-11-14 11:42:00
5:53 AM,62.1,61.0,96,29.99,5.0,South,8.1,-,N/A,,Scattered Clouds,180,2011-11-14 11:53:00
6:04 AM,62.6,62.6,100,29.98,5.0,South,8.1,-,N/A,,Mostly Cloudy,180,2011-11-14 12:04:00
6:40 AM,64.4,62.6,94,29.98,7.0,South,6.9,-,N/A,,Overcast,180,2011-11-14 12:40:00
6:53 AM,66.0,64.0,93,30.01,6.0,South,4.6,-,N/A,,Overcast,190,2011-11-14 12:53:00
7:53 AM,66.9,64.0,90,30.02,8.0,South,6.9,-,N/A,,Overcast,180,2011-11-14 13:53:00
8:53 AM,69.1,64.9,87,30.03,10.0,SSW,8.1,-,N/A,,Overcast,200,2011-11-14 14:53:00
9:15 AM,69.8,64.4,83,30.01,10.0,South,8.1,-,N/A,,Overcast,190,2011-11-14 15:15:00
9:53 AM,73.0,64.9,76,30.02,10.0,South,12.7,18.4,N/A,,Overcast,190,2011-11-14 15:53:00
10:53 AM,75.0,64.0,69,30.00,10.0,South,11.5,20.7,N/A,,Mostly Cloudy,190,2011-11-14 16:53:00
11:36 AM,75.2,62.6,65,29.96,10.0,SSW,9.2,16.1,N/A,,Mostly Cloudy,210,2011-11-14 17:36:00
11:53 AM,78.1,62.1,58,29.97,10.0,SSW,13.8,19.6,N/A,,Scattered Clouds,200,2011-11-14 17:53:00
12:53 PM,79.0,60.1,52,29.93,10.0,SSW,11.5,21.9,N/A,,Scattered Clouds,200,2011-11-14 18:53:00
1:53 PM,80.1,60.1,50,29.91,10.0,South,15.0,21.9,N/A,,Partly Cloudy,190,2011-11-14 19:53:00
2:53 PM,79.0,60.1,52,29.90,10.0,SW,8.1,20.7,N/A,,Mostly Cloudy,220,2011-11-14 20:53:00
3:53 PM,79.0,61.0,54,29.90,10.0,South,9.2,17.3,N/A,,Scattered Clouds,190,2011-11-14 21:53:00
4:53 PM,75.9,61.0,60,29.90,10.0,South,6.9,-,N/A,,Mostly Cloudy,180,2011-11-14 22:53:00
5:53 PM,71.1,61.0,70,29.91,10.0,SSE,5.8,-,N/A,,Mostly Cloudy,160,2011-11-14 23:53:00
7:53 PM,68.0,60.1,76,29.92,10.0,SSE,8.1,-,N/A,,Clear,160,2011-11-15 01:53:00
8:53 PM,68.0,61.0,78,29.91,10.0,South,10.4,-,N/A,,Clear,170,2011-11-15 02:53:00
9:53 PM,68.0,62.1,81,29.92,10.0,South,8.1,-,N/A,,Clear,180,2011-11-15 03:53:00
10:53 PM,66.9,62.1,84,29.91,10.0,SSE,5.8,-,N/A,,Clear,160,2011-11-15 04:53:00
11:53 PM,64.9,62.1,90,29.92,10.0,Calm,Calm,-,N/A,,Clear,0,2011-11-15 05:53:00